Year,Month,Day,Hour,Minute,Value (Times are PST for temperature in C)
2017,05,22,00,00,19.30
2017,05,22,00,01,19.40
2017,05,22,00,02,19.50
2017,05,22,00,03,19.60
2017,05,22,00,04,19.60
2017,05,22,00,05,19.70
2017,05,22,00,06,19.70
2017,05,22,00,07,19.70
2017,05,22,00,08,19.70
2017,05,22,00,09,19.70
2017,05,22,00,10,19.80
2017,05,22,00,11,19.80
2017,05,22,00,12,19.70
2017,05,22,00,13,19.70
2017,05,22,00,14,19.60
2017,05,22,00,15,19.50
2017,05,22,00,16,19.50
2017,05,22,00,17,19.30
2017,05,22,00,18,19.20
2017,05,22,00,19,19.10
2017,05,22,00,20,19.00
2017,05,22,00,21,18.90
2017,05,22,00,22,18.80
2017,05,22,00,23,18.80
2017,05,22,00,24,18.70
2017,05,22,00,25,18.70
2017,05,22,00,26,18.70
2017,05,22,00,27,18.70
2017,05,22,00,28,18.70
2017,05,22,00,29,18.70
2017,05,22,00,30,18.80
2017,05,22,00,31,18.80
2017,05,22,00,32,18.80
2017,05,22,00,33,18.90
2017,05,22,00,34,19.00
2017,05,22,00,35,19.10
2017,05,22,00,36,19.20
2017,05,22,00,37,19.20
2017,05,22,00,38,19.30
2017,05,22,00,39,19.40
2017,05,22,00,40,19.40
2017,05,22,00,41,19.40
2017,05,22,00,42,19.40
2017,05,22,00,43,19.40
2017,05,22,00,44,19.40
2017,05,22,00,45,19.40
2017,05,22,00,46,19.50
2017,05,22,00,47,19.50
2017,05,22,00,48,19.60
2017,05,22,00,49,19.60
2017,05,22,00,50,19.60
2017,05,22,00,51,19.60
2017,05,22,00,52,19.60
2017,05,22,00,53,19.60
2017,05,22,00,54,19.60
2017,05,22,00,55,19.70
2017,05,22,00,56,19.70
2017,05,22,00,57,19.70
2017,05,22,00,58,19.70
2017,05,22,00,59,19.70
2017,05,22,01,00,19.70
2017,05,22,01,01,19.70
2017,05,22,01,02,19.70
2017,05,22,01,03,19.60
2017,05,22,01,04,19.60
2017,05,22,01,05,19.60
2017,05,22,01,06,19.60
2017,05,22,01,07,19.50
2017,05,22,01,08,19.40
2017,05,22,01,09,19.30
2017,05,22,01,10,19.20
2017,05,22,01,11,19.00
2017,05,22,01,12,18.90
2017,05,22,01,13,18.80
2017,05,22,01,14,18.80
2017,05,22,01,15,18.70
2017,05,22,01,16,18.60
2017,05,22,01,17,18.60
2017,05,22,01,18,18.60
2017,05,22,01,19,18.50
2017,05,22,01,20,18.50
2017,05,22,01,21,18.40
2017,05,22,01,22,18.40
2017,05,22,01,23,18.30
2017,05,22,01,24,18.30
2017,05,22,01,25,18.30
2017,05,22,01,26,18.30
2017,05,22,01,27,18.20
2017,05,22,01,28,18.20
2017,05,22,01,29,18.10
2017,05,22,01,30,18.10
2017,05,22,01,31,18.10
2017,05,22,01,32,18.10
2017,05,22,01,33,18.10
2017,05,22,01,34,18.00
2017,05,22,01,35,18.00
2017,05,22,01,36,17.90
2017,05,22,01,37,17.90
2017,05,22,01,38,17.80
2017,05,22,01,39,17.70
2017,05,22,01,40,17.60
2017,05,22,01,41,17.60
2017,05,22,01,42,17.50
2017,05,22,01,43,17.50
2017,05,22,01,44,17.50
2017,05,22,01,45,17.40
2017,05,22,01,46,17.40
2017,05,22,01,47,17.40
2017,05,22,01,48,17.30
2017,05,22,01,49,17.30
2017,05,22,01,50,17.20
2017,05,22,01,51,17.10
2017,05,22,01,52,17.10
2017,05,22,01,53,17.10
2017,05,22,01,54,17.10
2017,05,22,01,55,17.10
2017,05,22,01,56,17.10
2017,05,22,01,57,17.00
2017,05,22,01,58,17.00
2017,05,22,01,59,17.00
2017,05,22,02,00,17.00
2017,05,22,02,01,17.00
2017,05,22,02,02,17.00
2017,05,22,02,03,17.00
2017,05,22,02,04,17.00
2017,05,22,02,05,17.00
2017,05,22,02,06,17.00
2017,05,22,02,07,17.00
2017,05,22,02,08,17.00
2017,05,22,02,09,17.00
2017,05,22,02,10,17.00
2017,05,22,02,11,16.90
2017,05,22,02,12,16.90
2017,05,22,02,13,16.80
2017,05,22,02,14,16.80
2017,05,22,02,15,16.80
2017,05,22,02,16,16.70
2017,05,22,02,17,16.70
2017,05,22,02,18,16.70
2017,05,22,02,19,16.70
2017,05,22,02,20,16.70
2017,05,22,02,21,16.60
2017,05,22,02,22,16.60
2017,05,22,02,23,16.60
2017,05,22,02,24,16.60
2017,05,22,02,25,16.50
2017,05,22,02,26,16.50
2017,05,22,02,27,16.40
2017,05,22,02,28,16.30
2017,05,22,02,29,16.30
2017,05,22,02,30,16.30
2017,05,22,02,31,16.20
2017,05,22,02,32,16.10
2017,05,22,02,33,16.10
2017,05,22,02,34,16.00
2017,05,22,02,35,15.90
2017,05,22,02,36,15.90
2017,05,22,02,37,15.80
2017,05,22,02,38,15.70
2017,05,22,02,39,15.70
2017,05,22,02,40,15.60
2017,05,22,02,41,15.60
2017,05,22,02,42,15.50
2017,05,22,02,43,15.40
2017,05,22,02,44,15.40
2017,05,22,02,45,15.30
2017,05,22,02,46,15.30
2017,05,22,02,47,15.20
2017,05,22,02,48,15.20
2017,05,22,02,49,15.10
2017,05,22,02,50,15.10
2017,05,22,02,51,15.10
2017,05,22,02,52,15.00
2017,05,22,02,53,15.00
2017,05,22,02,54,14.90
2017,05,22,02,55,14.90
2017,05,22,02,56,14.90
2017,05,22,02,57,14.80
2017,05,22,02,58,14.80
2017,05,22,02,59,14.80
2017,05,22,03,00,14.80
2017,05,22,03,01,14.70
2017,05,22,03,02,14.70
2017,05,22,03,03,14.70
2017,05,22,03,04,14.60
2017,05,22,03,05,14.60
2017,05,22,03,06,14.50
2017,05,22,03,07,14.50
2017,05,22,03,08,14.40
2017,05,22,03,09,14.40
2017,05,22,03,10,14.30
2017,05,22,03,11,14.30
2017,05,22,03,12,14.30
2017,05,22,03,13,14.20
2017,05,22,03,14,14.20
2017,05,22,03,15,14.20
2017,05,22,03,16,14.10
2017,05,22,03,17,14.10
2017,05,22,03,18,14.10
2017,05,22,03,19,14.10
2017,05,22,03,20,14.10
2017,05,22,03,21,14.10
2017,05,22,03,22,14.10
2017,05,22,03,23,14.00
2017,05,22,03,24,14.00
2017,05,22,03,25,13.90
2017,05,22,03,26,13.90
2017,05,22,03,27,13.90
2017,05,22,03,28,13.80
2017,05,22,03,29,13.80
2017,05,22,03,30,13.80
2017,05,22,03,31,13.80
2017,05,22,03,32,13.80
2017,05,22,03,33,13.70
2017,05,22,03,34,13.70
2017,05,22,03,35,13.70
2017,05,22,03,36,13.70
2017,05,22,03,37,13.60
2017,05,22,03,38,13.60
2017,05,22,03,39,13.60
2017,05,22,03,40,13.60
2017,05,22,03,41,13.60
2017,05,22,03,42,13.60
2017,05,22,03,43,13.60
2017,05,22,03,44,13.50
2017,05,22,03,45,13.50
2017,05,22,03,46,13.50
2017,05,22,03,47,13.50
2017,05,22,03,48,13.50
2017,05,22,03,49,13.50
2017,05,22,03,50,13.50
2017,05,22,03,51,13.50
2017,05,22,03,52,13.60
2017,05,22,03,53,13.60
2017,05,22,03,54,13.60
2017,05,22,03,55,13.60
2017,05,22,03,56,13.70
2017,05,22,03,57,13.70
2017,05,22,03,58,13.70
2017,05,22,03,59,13.80
2017,05,22,04,00,13.80
2017,05,22,04,01,14.00
2017,05,22,04,02,14.10
2017,05,22,04,03,14.30
2017,05,22,04,04,14.40
2017,05,22,04,05,14.50
2017,05,22,04,06,14.70
2017,05,22,04,07,14.80
2017,05,22,04,08,14.90
2017,05,22,04,09,15.00
2017,05,22,04,10,15.10
2017,05,22,04,11,15.10
2017,05,22,04,12,15.20
2017,05,22,04,13,15.20
2017,05,22,04,14,15.30
2017,05,22,04,15,15.30
2017,05,22,04,16,15.40
2017,05,22,04,17,15.50
2017,05,22,04,18,15.50
2017,05,22,04,19,15.60
2017,05,22,04,20,15.70
2017,05,22,04,21,15.80
2017,05,22,04,22,15.90
2017,05,22,04,23,16.00
2017,05,22,04,24,16.10
2017,05,22,04,25,16.20
2017,05,22,04,26,16.20
2017,05,22,04,27,16.30
2017,05,22,04,28,16.30
2017,05,22,04,29,16.30
2017,05,22,04,30,16.30
2017,05,22,04,31,16.30
2017,05,22,04,32,16.30
2017,05,22,04,33,16.40
2017,05,22,04,34,16.40
2017,05,22,04,35,16.30
2017,05,22,04,36,16.30
2017,05,22,04,37,16.30
2017,05,22,04,38,16.40
2017,05,22,04,39,16.40
2017,05,22,04,40,16.40
2017,05,22,04,41,16.50
2017,05,22,04,42,16.50
2017,05,22,04,43,16.60
2017,05,22,04,44,16.50
2017,05,22,04,45,16.60
2017,05,22,04,46,16.50
2017,05,22,04,47,16.50
2017,05,22,04,48,16.40
2017,05,22,04,49,16.40
2017,05,22,04,50,16.30
2017,05,22,04,51,16.20
2017,05,22,04,52,16.20
2017,05,22,04,53,16.10
2017,05,22,04,54,16.10
2017,05,22,04,55,16.00
2017,05,22,04,56,15.90
2017,05,22,04,57,15.80
2017,05,22,04,58,15.80
2017,05,22,04,59,15.80
2017,05,22,05,00,15.70
2017,05,22,05,01,15.70
2017,05,22,05,02,15.70
2017,05,22,05,03,15.60
2017,05,22,05,04,15.60
2017,05,22,05,05,15.50
2017,05,22,05,06,15.50
2017,05,22,05,07,15.40
2017,05,22,05,08,15.40
2017,05,22,05,09,15.30
2017,05,22,05,10,15.30
2017,05,22,05,11,15.30
2017,05,22,05,12,15.20
2017,05,22,05,13,15.20
2017,05,22,05,14,15.20
2017,05,22,05,15,15.20
2017,05,22,05,16,15.20
2017,05,22,05,17,15.20
2017,05,22,05,18,15.30
2017,05,22,05,19,15.30
2017,05,22,05,20,15.30
2017,05,22,05,21,15.30
2017,05,22,05,22,15.40
2017,05,22,05,23,15.50
2017,05,22,05,24,15.50
2017,05,22,05,25,15.60
2017,05,22,05,26,15.60
2017,05,22,05,27,15.60
2017,05,22,05,28,15.60
2017,05,22,05,29,15.50
2017,05,22,05,30,15.50
2017,05,22,05,31,15.40
2017,05,22,05,32,15.40
2017,05,22,05,33,15.30
2017,05,22,05,34,15.20
2017,05,22,05,35,15.10
2017,05,22,05,36,15.10
2017,05,22,05,37,15.00
2017,05,22,05,38,14.90
2017,05,22,05,39,14.90
2017,05,22,05,40,14.80
2017,05,22,05,41,14.70
2017,05,22,05,42,14.60
2017,05,22,05,43,14.60
2017,05,22,05,44,14.50
2017,05,22,05,45,14.40
2017,05,22,05,46,14.30
2017,05,22,05,47,14.30
2017,05,22,05,48,14.20
2017,05,22,05,49,14.10
2017,05,22,05,50,14.10
2017,05,22,05,51,14.00
2017,05,22,05,52,13.90
2017,05,22,05,53,13.90
2017,05,22,05,54,13.90
2017,05,22,05,55,13.80
2017,05,22,05,56,13.80
2017,05,22,05,57,13.80
2017,05,22,05,58,13.90
2017,05,22,05,59,13.90
2017,05,22,06,00,13.90
2017,05,22,06,01,13.90
2017,05,22,06,02,13.90
2017,05,22,06,03,13.80
2017,05,22,06,04,13.80
2017,05,22,06,05,13.80
2017,05,22,06,06,13.80
2017,05,22,06,07,13.80
2017,05,22,06,08,13.80
2017,05,22,06,09,13.80
2017,05,22,06,10,13.80
2017,05,22,06,11,13.80
2017,05,22,06,12,13.80
2017,05,22,06,13,13.80
2017,05,22,06,14,13.80
2017,05,22,06,15,13.80
2017,05,22,06,16,13.80
2017,05,22,06,17,13.80
2017,05,22,06,18,13.80
2017,05,22,06,19,13.80
2017,05,22,06,20,13.80
2017,05,22,06,21,13.80
2017,05,22,06,22,13.80
2017,05,22,06,23,13.90
2017,05,22,06,24,13.90
2017,05,22,06,25,13.90
2017,05,22,06,26,13.90
2017,05,22,06,27,13.90
2017,05,22,06,28,13.90
2017,05,22,06,29,14.00
2017,05,22,06,30,14.00
2017,05,22,06,31,14.00
2017,05,22,06,32,14.00
2017,05,22,06,33,14.00
2017,05,22,06,34,14.00
2017,05,22,06,35,14.00
2017,05,22,06,36,14.00
2017,05,22,06,37,14.00
2017,05,22,06,38,14.00
2017,05,22,06,39,14.00
2017,05,22,06,40,13.90
2017,05,22,06,41,13.90
2017,05,22,06,42,13.90
2017,05,22,06,43,13.90
2017,05,22,06,44,13.90
2017,05,22,06,45,13.90
2017,05,22,06,46,13.90
2017,05,22,06,47,13.90
2017,05,22,06,48,13.90
2017,05,22,06,49,13.90
2017,05,22,06,50,13.90
2017,05,22,06,51,13.90
2017,05,22,06,52,13.90
2017,05,22,06,53,13.90
2017,05,22,06,54,13.90
2017,05,22,06,55,13.90
2017,05,22,06,56,13.90
2017,05,22,06,57,13.90
2017,05,22,06,58,14.00
2017,05,22,06,59,14.00
2017,05,22,07,00,14.00
2017,05,22,07,01,14.00
2017,05,22,07,02,14.00
2017,05,22,07,03,14.00
2017,05,22,07,04,14.00
2017,05,22,07,05,14.00
2017,05,22,07,06,14.00
2017,05,22,07,07,14.10
2017,05,22,07,08,14.10
2017,05,22,07,09,14.10
2017,05,22,07,10,14.10
2017,05,22,07,11,14.10
2017,05,22,07,12,14.10
2017,05,22,07,13,14.10
2017,05,22,07,14,14.20
2017,05,22,07,15,14.20
2017,05,22,07,16,14.20
2017,05,22,07,17,14.20
2017,05,22,07,18,14.30
2017,05,22,07,19,14.30
2017,05,22,07,20,14.30
2017,05,22,07,21,14.30
2017,05,22,07,22,14.40
2017,05,22,07,23,14.40
2017,05,22,07,24,14.50
2017,05,22,07,25,14.60
2017,05,22,07,26,14.60
2017,05,22,07,27,14.70
2017,05,22,07,28,14.80
2017,05,22,07,29,14.90
2017,05,22,07,30,14.90
2017,05,22,07,31,15.00
2017,05,22,07,32,15.10
2017,05,22,07,33,15.20
2017,05,22,07,34,15.30
2017,05,22,07,35,15.30
2017,05,22,07,36,15.40
2017,05,22,07,37,15.50
2017,05,22,07,38,15.60
2017,05,22,07,39,15.70
2017,05,22,07,40,15.80
2017,05,22,07,41,16.00
2017,05,22,07,42,16.10
2017,05,22,07,43,16.20
2017,05,22,07,44,16.40
2017,05,22,07,45,16.50
2017,05,22,07,46,16.60
2017,05,22,07,47,16.70
2017,05,22,07,48,16.80
2017,05,22,07,49,17.00
2017,05,22,07,50,17.10
2017,05,22,07,51,17.20
2017,05,22,07,52,17.30
2017,05,22,07,53,17.40
2017,05,22,07,54,17.50
2017,05,22,07,55,17.60
2017,05,22,07,56,17.70
2017,05,22,07,57,17.80
2017,05,22,07,58,17.90
2017,05,22,07,59,18.00
2017,05,22,08,00,18.00
2017,05,22,08,01,18.10
2017,05,22,08,02,18.20
2017,05,22,08,03,18.20
2017,05,22,08,04,18.20
2017,05,22,08,05,18.30
2017,05,22,08,06,18.30
2017,05,22,08,07,18.30
2017,05,22,08,08,18.40
2017,05,22,08,09,18.40
2017,05,22,08,10,18.40
2017,05,22,08,11,18.40
2017,05,22,08,12,18.40
2017,05,22,08,13,18.50
2017,05,22,08,14,18.50
2017,05,22,08,15,18.50
2017,05,22,08,16,18.60
2017,05,22,08,17,18.70
2017,05,22,08,18,18.70
2017,05,22,08,19,18.80
2017,05,22,08,20,18.80
2017,05,22,08,21,18.80
2017,05,22,08,22,18.90
2017,05,22,08,23,18.90
2017,05,22,08,24,18.90
2017,05,22,08,25,19.00
2017,05,22,08,26,19.10
2017,05,22,08,27,19.10
2017,05,22,08,28,19.20
2017,05,22,08,29,19.30
2017,05,22,08,30,19.30
2017,05,22,08,31,19.30
2017,05,22,08,32,19.30
2017,05,22,08,33,19.40
2017,05,22,08,34,19.40
2017,05,22,08,35,19.40
2017,05,22,08,36,19.50
2017,05,22,08,37,19.50
2017,05,22,08,38,19.60
2017,05,22,08,39,19.60
2017,05,22,08,40,19.60
2017,05,22,08,41,19.60
2017,05,22,08,42,19.60
2017,05,22,08,43,19.60
2017,05,22,08,44,19.60
2017,05,22,08,45,19.60
2017,05,22,08,46,19.60
2017,05,22,08,47,19.60
2017,05,22,08,48,19.60
2017,05,22,08,49,19.60
2017,05,22,08,50,19.60
2017,05,22,08,51,19.60
2017,05,22,08,52,19.60
2017,05,22,08,53,19.70
2017,05,22,08,54,19.70
2017,05,22,08,55,19.70
2017,05,22,08,56,19.70
2017,05,22,08,57,19.80
2017,05,22,08,58,19.80
2017,05,22,08,59,19.90
2017,05,22,09,00,19.90
2017,05,22,09,01,20.00
2017,05,22,09,02,20.00
2017,05,22,09,03,20.00
2017,05,22,09,04,20.00
2017,05,22,09,05,20.00
2017,05,22,09,06,20.00
2017,05,22,09,07,20.10
2017,05,22,09,08,20.10
2017,05,22,09,09,20.10
2017,05,22,09,10,20.10
2017,05,22,09,11,20.10
2017,05,22,09,12,20.10
2017,05,22,09,13,20.20
2017,05,22,09,14,20.20
2017,05,22,09,15,20.20
2017,05,22,09,16,20.30
2017,05,22,09,17,20.30
2017,05,22,09,18,20.30
2017,05,22,09,19,20.40
2017,05,22,09,20,20.40
2017,05,22,09,21,20.40
2017,05,22,09,22,20.40
2017,05,22,09,23,20.50
2017,05,22,09,24,20.50
2017,05,22,09,25,20.60
2017,05,22,09,26,20.60
2017,05,22,09,27,20.60
2017,05,22,09,28,20.60
2017,05,22,09,29,20.70
2017,05,22,09,30,20.70
2017,05,22,09,31,20.80
2017,05,22,09,32,20.80
2017,05,22,09,33,20.80
2017,05,22,09,34,20.80
2017,05,22,09,35,20.90
2017,05,22,09,36,20.90
2017,05,22,09,37,21.00
2017,05,22,09,38,21.00
2017,05,22,09,39,21.00
2017,05,22,09,40,21.10
2017,05,22,09,41,21.10
2017,05,22,09,42,21.10
2017,05,22,09,43,21.20
2017,05,22,09,44,21.20
2017,05,22,09,45,21.20
2017,05,22,09,46,21.20
2017,05,22,09,47,21.20
2017,05,22,09,48,21.20
2017,05,22,09,49,21.20
2017,05,22,09,50,21.20
2017,05,22,09,51,21.30
2017,05,22,09,52,21.30
2017,05,22,09,53,21.30
2017,05,22,09,54,21.30
2017,05,22,09,55,21.30
2017,05,22,09,56,21.30
2017,05,22,09,57,21.30
2017,05,22,09,58,21.30
2017,05,22,09,59,21.30
2017,05,22,10,00,21.30
2017,05,22,10,01,21.30
2017,05,22,10,02,21.30
2017,05,22,10,03,21.40
2017,05,22,10,04,21.40
2017,05,22,10,05,21.50
2017,05,22,10,06,21.60
2017,05,22,10,07,21.60
2017,05,22,10,08,21.60
2017,05,22,10,09,21.60
2017,05,22,10,10,21.60
2017,05,22,10,11,21.60
2017,05,22,10,12,21.60
2017,05,22,10,13,21.60
2017,05,22,10,14,21.60
2017,05,22,10,15,21.60
2017,05,22,10,16,21.60
2017,05,22,10,17,21.60
2017,05,22,10,18,21.70
2017,05,22,10,19,21.60
2017,05,22,10,20,21.60
2017,05,22,10,21,21.60
2017,05,22,10,22,21.60
2017,05,22,10,23,21.50
2017,05,22,10,24,21.50
2017,05,22,10,25,21.40
2017,05,22,10,26,21.30
2017,05,22,10,27,21.30
2017,05,22,10,28,21.30
2017,05,22,10,29,21.30
2017,05,22,10,30,21.30
2017,05,22,10,31,21.40
2017,05,22,10,32,21.50
2017,05,22,10,33,21.60
2017,05,22,10,34,21.60
2017,05,22,10,35,21.70
2017,05,22,10,36,21.70
2017,05,22,10,37,21.80
2017,05,22,10,38,21.80
2017,05,22,10,39,21.70
2017,05,22,10,40,21.60
2017,05,22,10,41,21.50
2017,05,22,10,42,21.40
2017,05,22,10,43,21.30
2017,05,22,10,44,21.20
2017,05,22,10,45,21.10
2017,05,22,10,46,21.10
2017,05,22,10,47,21.10
2017,05,22,10,48,21.10
2017,05,22,10,49,21.10
2017,05,22,10,50,21.10
2017,05,22,10,51,21.00
2017,05,22,10,52,20.90
2017,05,22,10,53,20.90
2017,05,22,10,54,20.80
2017,05,22,10,55,20.70
2017,05,22,10,56,20.60
2017,05,22,10,57,20.60
2017,05,22,10,58,20.60
2017,05,22,10,59,20.60
2017,05,22,11,00,20.60
2017,05,22,11,01,20.60
2017,05,22,11,02,20.70
2017,05,22,11,03,20.70
2017,05,22,11,04,20.70
2017,05,22,11,05,20.70
2017,05,22,11,06,20.70
2017,05,22,11,07,20.70
2017,05,22,11,08,20.80
2017,05,22,11,09,20.80
2017,05,22,11,10,20.80
2017,05,22,11,11,20.80
2017,05,22,11,12,20.80
2017,05,22,11,13,20.90
2017,05,22,11,14,20.90
2017,05,22,11,15,21.00
2017,05,22,11,16,21.10
2017,05,22,11,17,21.20
2017,05,22,11,18,21.20
2017,05,22,11,19,21.20
2017,05,22,11,20,21.20
2017,05,22,11,21,21.20
2017,05,22,11,22,21.20
2017,05,22,11,23,21.20
2017,05,22,11,24,21.20
2017,05,22,11,25,21.20
2017,05,22,11,26,21.20
2017,05,22,11,27,21.20
2017,05,22,11,28,21.30
2017,05,22,11,29,21.30
2017,05,22,11,30,21.30
2017,05,22,11,31,21.20
2017,05,22,11,32,21.20
2017,05,22,11,33,21.20
2017,05,22,11,34,21.30
2017,05,22,11,35,21.30
2017,05,22,11,36,21.40
2017,05,22,11,37,21.50
2017,05,22,11,38,21.50
2017,05,22,11,39,21.60
2017,05,22,11,40,21.60
2017,05,22,11,41,21.60
2017,05,22,11,42,21.60
2017,05,22,11,43,21.70
2017,05,22,11,44,21.70
2017,05,22,11,45,21.70
2017,05,22,11,46,21.70
2017,05,22,11,47,21.70
2017,05,22,11,48,21.70
2017,05,22,11,49,21.80
2017,05,22,11,50,21.90
2017,05,22,11,51,22.00
2017,05,22,11,52,22.10
2017,05,22,11,53,22.10
2017,05,22,11,54,22.10
2017,05,22,11,55,22.20
2017,05,22,11,56,22.20
2017,05,22,11,57,22.20
2017,05,22,11,58,22.30
2017,05,22,11,59,22.40
2017,05,22,12,00,22.40
2017,05,22,12,01,22.40
2017,05,22,12,02,22.50
2017,05,22,12,03,22.50
2017,05,22,12,04,22.50
2017,05,22,12,05,22.50
2017,05,22,12,06,22.50
2017,05,22,12,07,22.50
2017,05,22,12,08,22.50
2017,05,22,12,09,22.50
2017,05,22,12,10,22.50
2017,05,22,12,11,22.40
2017,05,22,12,12,22.50
2017,05,22,12,13,22.50
2017,05,22,12,14,22.50
2017,05,22,12,15,22.50
2017,05,22,12,16,22.50
2017,05,22,12,17,22.50
2017,05,22,12,18,22.60
2017,05,22,12,19,22.60
2017,05,22,12,20,22.70
2017,05,22,12,21,22.80
2017,05,22,12,22,22.90
2017,05,22,12,23,23.00
2017,05,22,12,24,23.00
2017,05,22,12,25,23.00
2017,05,22,12,26,23.00
2017,05,22,12,27,23.00
2017,05,22,12,28,23.00
2017,05,22,12,29,23.10
2017,05,22,12,30,23.10
2017,05,22,12,31,23.10
2017,05,22,12,32,23.20
2017,05,22,12,33,23.20
2017,05,22,12,34,23.20
2017,05,22,12,35,23.20
2017,05,22,12,36,23.30
2017,05,22,12,37,23.30
2017,05,22,12,38,23.20
2017,05,22,12,39,23.20
2017,05,22,12,40,23.30
2017,05,22,12,41,23.30
2017,05,22,12,42,23.30
2017,05,22,12,43,23.40
2017,05,22,12,44,23.30
2017,05,22,12,45,23.30
2017,05,22,12,46,23.20
2017,05,22,12,47,23.20
2017,05,22,12,48,23.20
2017,05,22,12,49,23.20
2017,05,22,12,50,23.20
2017,05,22,12,51,23.20
2017,05,22,12,52,23.30
2017,05,22,12,53,23.30
2017,05,22,12,54,23.30
2017,05,22,12,55,23.30
2017,05,22,12,56,23.30
2017,05,22,12,57,23.30
2017,05,22,12,58,23.30
2017,05,22,12,59,23.40
2017,05,22,13,00,23.50
2017,05,22,13,01,23.60
2017,05,22,13,02,23.60
2017,05,22,13,03,23.50
2017,05,22,13,04,23.50
2017,05,22,13,05,23.40
2017,05,22,13,06,23.40
2017,05,22,13,07,23.40
2017,05,22,13,08,23.40
2017,05,22,13,09,23.40
2017,05,22,13,10,23.40
2017,05,22,13,11,23.40
2017,05,22,13,12,23.40
2017,05,22,13,13,23.40
2017,05,22,13,14,23.40
2017,05,22,13,15,23.40
2017,05,22,13,16,23.50
2017,05,22,13,17,23.50
2017,05,22,13,18,23.50
2017,05,22,13,19,23.60
2017,05,22,13,20,23.60
2017,05,22,13,21,23.60
2017,05,22,13,22,23.60
2017,05,22,13,23,23.70
2017,05,22,13,24,23.70
2017,05,22,13,25,23.70
2017,05,22,13,26,23.70
2017,05,22,13,27,23.70
2017,05,22,13,28,23.60
2017,05,22,13,29,23.60
2017,05,22,13,30,23.60
2017,05,22,13,31,23.70
2017,05,22,13,32,23.70
2017,05,22,13,33,23.70
2017,05,22,13,34,23.80
2017,05,22,13,35,23.90
2017,05,22,13,36,23.90
2017,05,22,13,37,23.90
2017,05,22,13,38,24.00
2017,05,22,13,39,24.00
2017,05,22,13,40,24.10
2017,05,22,13,41,24.20
2017,05,22,13,42,24.20
2017,05,22,13,43,24.30
2017,05,22,13,44,24.30
2017,05,22,13,45,24.30
2017,05,22,13,46,24.30
2017,05,22,13,47,24.20
2017,05,22,13,48,24.30
2017,05,22,13,49,24.30
2017,05,22,13,50,24.40
2017,05,22,13,51,24.40
2017,05,22,13,52,24.40
2017,05,22,13,53,24.50
2017,05,22,13,54,24.50
2017,05,22,13,55,24.50
2017,05,22,13,56,24.60
2017,05,22,13,57,24.70
2017,05,22,13,58,24.80
2017,05,22,13,59,24.80
2017,05,22,14,00,24.80
2017,05,22,14,01,24.80
2017,05,22,14,02,24.90
2017,05,22,14,03,25.00
2017,05,22,14,04,25.00
2017,05,22,14,05,25.10
2017,05,22,14,06,25.10
2017,05,22,14,07,25.10
2017,05,22,14,08,25.10
2017,05,22,14,09,25.20
2017,05,22,14,10,25.20
2017,05,22,14,11,25.20
2017,05,22,14,12,25.20
2017,05,22,14,13,25.20
2017,05,22,14,14,25.30
2017,05,22,14,15,25.40
2017,05,22,14,16,25.40
2017,05,22,14,17,25.50
2017,05,22,14,18,25.40
2017,05,22,14,19,25.40
2017,05,22,14,20,25.40
2017,05,22,14,21,25.30
2017,05,22,14,22,25.20
2017,05,22,14,23,25.10
2017,05,22,14,24,25.10
2017,05,22,14,25,25.10
2017,05,22,14,26,25.00
2017,05,22,14,27,25.00
2017,05,22,14,28,24.90
2017,05,22,14,29,24.90
2017,05,22,14,30,24.90
2017,05,22,14,31,25.00
2017,05,22,14,32,24.90
2017,05,22,14,33,24.90
2017,05,22,14,34,24.90
2017,05,22,14,35,24.80
2017,05,22,14,36,24.80
2017,05,22,14,37,24.80
2017,05,22,14,38,24.80
2017,05,22,14,39,24.70
2017,05,22,14,40,24.70
2017,05,22,14,41,24.60
2017,05,22,14,42,24.60
2017,05,22,14,43,24.60
2017,05,22,14,44,24.60
2017,05,22,14,45,24.70
2017,05,22,14,46,24.80
2017,05,22,14,47,25.00
2017,05,22,14,48,25.10
2017,05,22,14,49,25.10
2017,05,22,14,50,25.10
2017,05,22,14,51,25.10
2017,05,22,14,52,25.10
2017,05,22,14,53,25.20
2017,05,22,14,54,25.10
2017,05,22,14,55,25.10
2017,05,22,14,56,25.10
2017,05,22,14,57,25.10
2017,05,22,14,58,25.10
2017,05,22,14,59,25.10
2017,05,22,15,00,25.10
2017,05,22,15,01,25.00
2017,05,22,15,02,25.00
2017,05,22,15,03,24.90
2017,05,22,15,04,24.90
2017,05,22,15,05,24.90
2017,05,22,15,06,25.00
2017,05,22,15,07,25.10
2017,05,22,15,08,25.20
2017,05,22,15,09,25.20
2017,05,22,15,10,25.30
2017,05,22,15,11,25.30
2017,05,22,15,12,25.40
2017,05,22,15,13,25.40
2017,05,22,15,14,25.30
2017,05,22,15,15,25.30
2017,05,22,15,16,25.20
2017,05,22,15,17,25.30
2017,05,22,15,18,25.30
2017,05,22,15,19,25.30
2017,05,22,15,20,25.40
2017,05,22,15,21,25.50
2017,05,22,15,22,25.60
2017,05,22,15,23,25.70
2017,05,22,15,24,25.70
2017,05,22,15,25,25.80
2017,05,22,15,26,25.80
2017,05,22,15,27,25.80
2017,05,22,15,28,25.70
2017,05,22,15,29,25.70
2017,05,22,15,30,25.70
2017,05,22,15,31,25.70
2017,05,22,15,32,25.70
2017,05,22,15,33,25.70
2017,05,22,15,34,25.80
2017,05,22,15,35,25.80
2017,05,22,15,36,25.80
2017,05,22,15,37,25.80
2017,05,22,15,38,25.80
2017,05,22,15,39,25.80
2017,05,22,15,40,25.90
2017,05,22,15,41,25.90
2017,05,22,15,42,25.90
2017,05,22,15,43,26.00
2017,05,22,15,44,26.10
2017,05,22,15,45,26.10
2017,05,22,15,46,26.20
2017,05,22,15,47,26.20
2017,05,22,15,48,26.10
2017,05,22,15,49,26.10
2017,05,22,15,50,26.20
2017,05,22,15,51,26.20
2017,05,22,15,52,26.30
2017,05,22,15,53,26.40
2017,05,22,15,54,26.40
2017,05,22,15,55,26.40
2017,05,22,15,56,26.40
2017,05,22,15,57,26.30
2017,05,22,15,58,26.30
2017,05,22,15,59,26.30
2017,05,22,16,00,26.20
2017,05,22,16,01,26.20
2017,05,22,16,02,26.20
2017,05,22,16,03,26.30
2017,05,22,16,04,26.30
2017,05,22,16,05,26.30
2017,05,22,16,06,26.40
2017,05,22,16,07,26.60
2017,05,22,16,08,26.70
2017,05,22,16,09,26.80
2017,05,22,16,10,26.90
2017,05,22,16,11,27.00
2017,05,22,16,12,27.10
2017,05,22,16,13,27.00
2017,05,22,16,14,26.90
2017,05,22,16,15,26.90
2017,05,22,16,16,26.90
2017,05,22,16,17,26.80
2017,05,22,16,18,26.80
2017,05,22,16,19,26.70
2017,05,22,16,20,26.60
2017,05,22,16,21,26.60
2017,05,22,16,22,26.50
2017,05,22,16,23,26.60
2017,05,22,16,24,26.60
2017,05,22,16,25,26.60
2017,05,22,16,26,26.70
2017,05,22,16,27,26.80
2017,05,22,16,28,26.90
2017,05,22,16,29,27.00
2017,05,22,16,30,27.00
2017,05,22,16,31,27.10
2017,05,22,16,32,27.10
2017,05,22,16,33,27.10
2017,05,22,16,34,27.20
2017,05,22,16,35,27.20
2017,05,22,16,36,27.30
2017,05,22,16,37,27.30
2017,05,22,16,38,27.30
2017,05,22,16,39,27.30
2017,05,22,16,40,27.30
2017,05,22,16,41,27.30
2017,05,22,16,42,27.30
2017,05,22,16,43,27.30
2017,05,22,16,44,27.30
2017,05,22,16,45,27.40
2017,05,22,16,46,27.30
2017,05,22,16,47,27.30
2017,05,22,16,48,27.30
2017,05,22,16,49,27.40
2017,05,22,16,50,27.40
2017,05,22,16,51,27.40
2017,05,22,16,52,27.40
2017,05,22,16,53,27.30
2017,05,22,16,54,27.40
2017,05,22,16,55,27.40
2017,05,22,16,56,27.50
2017,05,22,16,57,27.50
2017,05,22,16,58,27.50
2017,05,22,16,59,27.40
2017,05,22,17,00,27.40
2017,05,22,17,01,27.30
2017,05,22,17,02,27.30
2017,05,22,17,03,27.30
2017,05,22,17,04,27.30
2017,05,22,17,05,27.40
2017,05,22,17,06,27.40
2017,05,22,17,07,27.50
2017,05,22,17,08,27.60
2017,05,22,17,09,27.60
2017,05,22,17,10,27.60
2017,05,22,17,11,27.60
2017,05,22,17,12,27.60
2017,05,22,17,13,27.60
2017,05,22,17,14,27.60
2017,05,22,17,15,27.60
2017,05,22,17,16,27.60
2017,05,22,17,17,27.70
2017,05,22,17,18,27.70
2017,05,22,17,19,27.70